[[{"header":{"parameterUnit":"m.s-1","parameterCategory":1,"la1":30.2991,"la2":30.254,"lo1":-89.0895,"lo2":-89.0444,"dy":0.0017,"dx":0.0017,"nx":28,"ny":28,"refTime":"2023-10-26T21:00:00:Z","depth":0,"parameterNumber":2,"parameterNumberName":"U-component_of_WINDS"},"data":[0,0,0,0,0,0,0,0,0,0,0,0,0,0,0,0,0,0,0,0,0,0,0,0,0,0,0,0,0,0,0,0,0,0,0,0,0,0,0,0,0,0,0,0,0,0,0,0,0,0,0,0,0,0,0,0,0,0,-2.0729,-2.073,0,-2.0774,-2.0774,-2.0775,-2.072,-2.0718,-2.0716,-2.0714,-2.0761,-2.0764,-2.0768,0,0,0,0,0,0,0,0,0,0,0,0,0,-2.0599,-2.0602,-2.0729,-2.073,-2.073,-2.0774,-2.0774,-2.0775,-2.072,-2.0717,-2.0715,-2.0713,-2.076,-2.0764,-2.0768,0,0,0,0,0,0,0,0,0,0,0,0,0,-2.0651,-2.0603,-2.0729,-2.0708,-2.0707,-2.0774,-2.0774,-2.0775,-2.072,-2.0717,-2.0714,-2.0711,-2.0759,-2.0764,-2.0768,-2.0859,0,0,-2.0783,-2.0785,0,0,0,0,0,0,0,0,-2.0648,-2.0656,-2.0711,-2.071,-2.0708,-2.0738,-2.0746,-2.0803,-2.0721,-2.0715,-2.0714,-2.071,-2.0756,-2.0761,-2.0776,-2.0861,-2.0863,-2.0783,-2.0786,-2.0788,-2.079,0,0,0,0,0,0,0,-2.0645,-2.0654,-2.0747,-2.0711,-2.071,-2.0697,-2.0701,-2.0757,-2.0752,-2.0716,-2.0712,-2.0718,-2.0755,-2.0772,-2.0777,-2.0864,-2.0783,-2.0787,-2.079,-2.0792,-2.1026,-2.103,0,0,0,0,0,0,-2.0643,-2.0651,-2.0745,-2.0748,-2.067,-2.0702,-2.0707,-2.0731,-2.0752,-2.0752,-2.072,-2.0715,-2.0765,-2.0771,-2.0778,-2.0886,-2.0788,-2.0793,-2.0795,-2.1023,-2.1027,-2.1031,0,0,0,0,0,0,-2.0641,-2.0652,-2.0744,-2.0699,-2.0709,-2.0708,-2.0736,-2.0734,-2.075,-2.0755,-2.0754,-2.0738,-2.0763,-2.0772,-2.0839,-2.0887,-2.0795,-2.0799,-2.1019,-2.1024,-2.1029,-2.1101,0,0,0,0,0,0,-2.0637,-2.0651,-2.0685,-2.07,-2.0712,-2.0803,-2.0739,-2.0737,-2.0759,-2.0752,-2.0771,-2.0772,-2.0761,-2.0832,-2.0844,-2.0891,-2.0803,-2.1015,-2.1021,-2.1027,-2.1095,-2.1108,-2.112,0,0,0,0,0,-2.0633,-2.0704,-2.0687,-2.0699,-2.0754,-2.0806,-2.0813,-2.0799,-2.0763,-2.0797,-2.08,-2.0771,-2.088,-2.084,-2.0852,-2.0902,-2.1012,-2.1019,-2.1027,-2.1089,-2.1105,-2.1119,0,0,0,0,0,0,-2.0695,-2.0705,-2.0687,-2.0764,-2.0785,-2.0796,-2.0839,-2.0817,-2.0848,-2.084,-2.0822,-2.0827,-2.0899,-2.0908,-2.0863,-2.0991,-2.094,-2.095,-2.0983,-2.0999,-2.1011,-2.1007,-2.0807,0,0,0,0,0,-2.0718,-2.0758,-2.0766,-2.0834,-2.0845,-2.0841,-2.0863,-2.085,-2.0871,-2.0879,-2.0887,-2.0909,-2.0948,-2.0974,-2.101,-2.1096,-2.11,-2.1136,-2.1149,-2.1159,-2.1168,-2.1215,-2.1232,-2.1056,-2.1056,-2.1055,0,0,-2.0765,-2.0776,-2.0803,-2.0847,-2.0861,-2.0904,-2.0848,-2.0896,-2.0928,-2.0886,-2.095,-2.0958,-2.0981,-2.1058,-2.1093,-2.1067,-2.1218,-2.1169,-2.1177,-2.1181,-2.1225,-2.1241,-2.1256,-2.1061,-2.106,-2.1059,0,0,-2.0873,-2.0886,-2.0944,-2.0959,-2.0981,-2.0978,-2.0993,-2.1008,-2.1011,-2.1075,-2.1045,-2.1084,-2.1151,-2.1169,-2.1187,-2.1305,-2.128,-2.1317,-2.1382,-2.1428,-2.1442,-2.1455,-2.1497,-2.1512,-2.1326,-2.1327,-2.1327,0,-2.0929,-2.0993,-2.0977,-2.1027,-2.1048,-2.1012,-2.1072,-2.1088,-2.1121,-2.1137,-2.1108,-2.1192,-2.1205,-2.1287,-2.1316,-2.1331,-2.1348,-2.1314,-2.1442,-2.1454,-2.1465,-2.1505,-2.1521,-2.1331,-2.1331,-2.133,-2.133,0,-2.1061,-2.1106,-2.115,-2.1183,-2.1209,-2.1264,-2.1257,-2.1285,-2.1271,-2.1272,-2.1338,-2.1353,-2.1392,-2.1411,-2.1397,-2.1491,-2.1474,-2.1444,-2.1392,-2.1486,-2.1523,-2.1539,-2.1337,-2.1336,-2.1334,-2.1333,0,0,-2.1208,-2.1232,-2.1249,-2.1263,-2.1286,-2.1321,-2.1375,-2.1413,-2.1438,-2.1463,-2.1508,-2.1567,-2.1539,-2.156,-2.1549,-2.1589,-2.1682,-2.1554,-2.1554,-2.1577,-2.1786,-2.1808,-2.1826,-2.1666,-2.1669,-2.1671,-2.1784,0,-2.1316,-2.1409,-2.1397,-2.1486,-2.1527,-2.1495,-2.1542,-2.1562,-2.1565,-2.1601,-2.1604,-2.1646,-2.1606,-2.1619,-2.1657,-2.1662,-2.1723,-2.1654,-2.1708,-2.171,-2.1702,-2.1845,-2.1869,-2.1975,-2.1798,-2.1801,-2.1803,0,-2.1454,-2.1484,-2.1577,-2.1595,-2.1612,-2.1654,-2.1688,-2.1724,-2.1746,-2.1745,-2.1769,-2.1751,-2.1807,-2.1755,-2.1831,-2.1785,-2.1806,-2.1812,-2.1816,-2.182,-2.1761,-2.1853,-2.2008,-2.2024,-2.1825,-2.1824,-2.1822,0,-2.1552,-2.1615,-2.1679,-2.1693,-2.1715,-2.1746,-2.1757,-2.1776,-2.18,-2.1831,-2.1846,-2.1883,-2.1903,-2.1933,-2.1926,-2.1889,-2.2005,-2.1952,-2.2006,-2.2006,-2.2031,-2.2029,-2.2191,-2.2046,-2.2046,-2.2046,-2.2045,0,-2.1673,-2.1732,-2.1723,-2.1763,-2.1828,-2.1814,-2.1879,-2.1886,-2.1904,-2.1945,-2.192,-2.196,-2.1948,-2.1988,-2.1983,-2.2048,-2.2057,-2.2058,-2.2056,-2.206,-2.206,-2.2073,-2.2065,-2.205,-2.2049,-2.2048,-2.2047,0,-2.1792,-2.1789,-2.1857,-2.1873,-2.1878,-2.1926,-2.1939,-2.1977,-2.1978,-2.2031,-2.2042,-2.2044,-2.2089,-2.2086,-2.2137,-2.2133,-2.2213,-2.2203,-2.2205,-2.2203,-2.2257,-2.2252,-2.2433,-2.2456,-2.2297,-2.2298,-2.2299,0,-2.187,-2.1914,-2.1935,-2.196,-2.1973,-2.2014,-2.2038,-2.2028,-2.2054,-2.2084,-2.2119,-2.2162,-2.2195,-2.2269,-2.2275,-2.2314,-2.2304,-2.2365,-2.231,-2.2313,-2.2305,-2.2302,-2.2307,-2.2376,-2.2378,-2.2379,-2.238,0,-2.2007,-2.2004,-2.2039,-2.2075,-2.2105,-2.2133,-2.2158,-2.2181,-2.2173,-2.2204,-2.225,-2.2276,-2.2328,-2.2371,-2.2409,-2.2421,-2.24,-2.2398,-2.2412,-2.2416,-2.2416,-2.2417,-2.2234,-2.2393,-2.2392,-2.2391,-2.239,-2.239,-2.2107,-2.2145,-2.2166,-2.2207,-2.2225,-2.225,-2.2286,-2.2292,-2.233,-2.2371,-2.2363,-2.2414,-2.2437,-2.2486,-2.2502,-2.2542,-2.2521,-2.2542,-2.2547,-2.2552,-2.2558,-2.241,-2.2549,-2.2549,-2.2549,-2.2548,-2.2548,0,-2.2243,-2.2255,-2.2293,-2.2329,-2.2362,-2.234,-2.2367,-2.2396,-2.2441,-2.2465,-2.2498,-2.2551,-2.2593,-2.2604,-2.2645,-2.2675,-2.2667,-2.2687,-2.2684,-2.2687,-2.2575,-2.2559,-2.2693,-2.2693,-2.2693,-2.2693,-2.2693,-2.2693,-2.2317,-2.238,-2.238,-2.2453,-2.2465,-2.2514,-2.2532,-2.2555,-2.2574,-2.2634,-2.2668,-2.2675,-2.2694,-2.2736,-2.2774,-2.2776,-2.2792,-2.2816,-2.2814,-2.2709,-2.2695,-2.2681,-2.2665,-2.2819,-2.2819,-2.2922,-2.2923,-2.2924]},{"header":{"parameterUnit":"m.s-1","parameterCategory":1,"la1":30.2991,"la2":30.254,"lo1":-89.0895,"lo2":-89.0444,"dy":0.0017,"dx":0.0017,"nx":28,"ny":28,"refTime":"2023-10-26T21:00:00:Z","depth":0,"parameterNumber":3,"parameterNumberName":"V-component_of_WINDS"},"data":[0,0,0,0,0,0,0,0,0,0,0,0,0,0,0,0,0,0,0,0,0,0,0,0,0,0,0,0,0,0,0,0,0,0,0,0,0,0,0,0,0,0,0,0,0,0,0,0,0,0,0,0,0,0,0,0,0,0,0.1186,0.1187,0,0.124,0.1241,0.1241,0.1272,0.1272,0.1273,0.1273,0.133,0.1331,0.1332,0,0,0,0,0,0,0,0,0,0,0,0,0,0.1114,0.1115,0.1186,0.1187,0.1188,0.124,0.1241,0.1241,0.1272,0.1272,0.1273,0.1273,0.1329,0.1331,0.1332,0,0,0,0,0,0,0,0,0,0,0,0,0,0.1154,0.1116,0.1186,0.1209,0.1212,0.124,0.1241,0.1242,0.1272,0.1272,0.1273,0.1273,0.1328,0.1331,0.1333,0.1342,0,0,0.1339,0.134,0,0,0,0,0,0,0,0,0.1152,0.1157,0.1205,0.1208,0.1211,0.125,0.1236,0.1275,0.1272,0.1249,0.1273,0.1273,0.1303,0.1307,0.1317,0.1345,0.1347,0.1339,0.1341,0.1341,0.1342,0,0,0,0,0,0,0,0.1149,0.1155,0.1208,0.1206,0.1209,0.1218,0.1224,0.1244,0.1275,0.1251,0.1254,0.126,0.1304,0.1315,0.1318,0.1348,0.1339,0.1341,0.1342,0.1343,0.1391,0.1391,0,0,0,0,0,0,0.1142,0.1152,0.1206,0.1209,0.1181,0.1219,0.1226,0.1237,0.1274,0.128,0.1259,0.1261,0.1311,0.1316,0.1321,0.1337,0.1341,0.1343,0.1345,0.1391,0.1391,0.1391,0,0,0,0,0,0,0.1141,0.1147,0.1204,0.1181,0.1189,0.122,0.1233,0.1238,0.1248,0.128,0.1286,0.1264,0.1311,0.1318,0.1337,0.1339,0.1344,0.1346,0.1391,0.1391,0.1391,0.1367,0,0,0,0,0,0,0.1138,0.1146,0.1149,0.1181,0.119,0.1218,0.1233,0.1239,0.1252,0.1254,0.1286,0.1292,0.1312,0.1334,0.1339,0.1342,0.1348,0.1391,0.1391,0.1391,0.1368,0.1366,0.1365,0,0,0,0,0,0.1136,0.114,0.1149,0.1155,0.1195,0.1218,0.1224,0.1246,0.1251,0.1256,0.1277,0.1291,0.1338,0.1336,0.1342,0.1345,0.1391,0.1391,0.1391,0.1368,0.1366,0.1365,0,0,0,0,0,0,0.1106,0.1144,0.1155,0.1169,0.119,0.1223,0.1229,0.1243,0.1263,0.1264,0.1292,0.1299,0.1317,0.1333,0.133,0.1358,0.1366,0.1367,0.1347,0.1345,0.1344,0.134,0.135,0,0,0,0,0,0.1102,0.1117,0.1149,0.1159,0.1169,0.1197,0.1208,0.1224,0.1247,0.1256,0.1279,0.1302,0.1322,0.1334,0.1355,0.137,0.1379,0.1376,0.1374,0.1373,0.1374,0.1387,0.1386,0.1391,0.1391,0.1391,0,0,0.1092,0.1115,0.1122,0.1154,0.1172,0.1189,0.1204,0.122,0.1234,0.1259,0.1279,0.1297,0.1324,0.1343,0.1352,0.1357,0.1375,0.1373,0.1372,0.1373,0.1386,0.1386,0.1386,0.1391,0.1391,0.1391,0,0,0.1083,0.1101,0.1112,0.113,0.1158,0.1177,0.1179,0.1211,0.1224,0.1245,0.1265,0.1282,0.1315,0.1335,0.1349,0.1351,0.1365,0.1356,0.1349,0.1361,0.136,0.136,0.1363,0.1363,0.1357,0.1357,0.1357,0,0.1067,0.1092,0.1116,0.1132,0.1146,0.117,0.1183,0.12,0.1232,0.1243,0.1247,0.1292,0.1312,0.1337,0.1337,0.1347,0.1353,0.1353,0.1358,0.1358,0.1359,0.1361,0.1362,0.1356,0.1356,0.1356,0.1356,0,0.1073,0.109,0.1096,0.1127,0.1142,0.1156,0.1184,0.1197,0.1212,0.1231,0.1254,0.1279,0.1306,0.1313,0.1327,0.1341,0.1343,0.1353,0.1361,0.1357,0.136,0.1361,0.1354,0.1355,0.1355,0.1355,0,0,0.1045,0.1091,0.1093,0.1109,0.1142,0.1157,0.1173,0.12,0.1211,0.1234,0.1249,0.1279,0.1289,0.1305,0.1322,0.1333,0.1335,0.1342,0.1343,0.1341,0.1354,0.1347,0.1348,0.1345,0.1346,0.1346,0.1353,0,0.1042,0.1071,0.1095,0.1116,0.1134,0.1158,0.1173,0.1196,0.1215,0.1234,0.1256,0.1277,0.1287,0.1298,0.1309,0.1332,0.1339,0.1332,0.1362,0.1363,0.1355,0.1349,0.1342,0.1347,0.1354,0.1354,0.1354,0,0.1041,0.1064,0.1087,0.1121,0.1129,0.1142,0.1169,0.1186,0.1214,0.1228,0.1247,0.1266,0.1287,0.1294,0.1324,0.1319,0.1333,0.1347,0.1348,0.1352,0.1358,0.1355,0.1349,0.135,0.1356,0.1356,0.1356,0,0.1021,0.1057,0.1076,0.1089,0.1128,0.1137,0.1154,0.1182,0.1198,0.1222,0.1233,0.126,0.1275,0.1296,0.1322,0.1324,0.1351,0.1359,0.1364,0.1364,0.1369,0.1368,0.1366,0.1376,0.1376,0.1376,0.1376,0,0.1015,0.1029,0.1068,0.1079,0.1097,0.1124,0.1141,0.116,0.1186,0.1203,0.1226,0.1243,0.1276,0.1297,0.1318,0.1342,0.1348,0.1361,0.1366,0.1359,0.1358,0.1369,0.137,0.1376,0.1376,0.1376,0.1376,0,0.0995,0.1021,0.1044,0.1081,0.109,0.1102,0.1134,0.1147,0.1168,0.1191,0.1198,0.1231,0.1258,0.1286,0.1322,0.1336,0.1359,0.1366,0.1349,0.1353,0.1357,0.1357,0.1363,0.1366,0.1373,0.1372,0.1372,0,0.099,0.1001,0.1039,0.1053,0.1069,0.109,0.1106,0.1135,0.1151,0.1186,0.1196,0.1224,0.1248,0.1289,0.1318,0.1346,0.1355,0.1355,0.136,0.1353,0.1357,0.1357,0.1359,0.1354,0.1354,0.1354,0.1353,0,0.0979,0.0992,0.1014,0.1041,0.1059,0.1082,0.1106,0.1116,0.115,0.1167,0.1194,0.1213,0.1251,0.1279,0.1312,0.1331,0.1349,0.1352,0.1355,0.1348,0.1339,0.1346,0.1347,0.1352,0.1352,0.1352,0.1352,0.1352,0.0967,0.0979,0.1009,0.1033,0.1054,0.1077,0.1092,0.1116,0.1138,0.1171,0.1187,0.1215,0.1246,0.1291,0.1311,0.1334,0.1339,0.1343,0.1344,0.1345,0.1344,0.1334,0.134,0.134,0.134,0.134,0.134,0,0.0958,0.0979,0.1001,0.1034,0.1054,0.1069,0.1097,0.1113,0.1136,0.1163,0.1187,0.122,0.1248,0.128,0.1311,0.1324,0.1333,0.1332,0.1331,0.1336,0.1337,0.1332,0.1324,0.1324,0.1324,0.1324,0.1324,0.1324,0.0956,0.0978,0.0995,0.1029,0.105,0.1077,0.1092,0.1114,0.1136,0.1171,0.1195,0.1215,0.1245,0.1279,0.1307,0.1316,0.1327,0.1323,0.1335,0.1334,0.1336,0.1337,0.1332,0.1325,0.1325,0.1332,0.1332,0.1332]}]]